SCP
0 -0 0 0 0 0 0 -0 -0 -0 0 -0 0 -0 -0 0 0 -0 0 0 -0 -0 -0 -0 -0 -0 -0 -0 -0 0 0 0 0 0 0 0 0 -0 0 0 0 -0 -0 -0 -0 -0 -0 -0 -0
0 0 0 0 0 0 0 -0 0 -0 0 -0 -0 -0 -0 -0 0 0 0 0 -0 -0 -0 -0 -0 -0 0 -0 -0 0 0 0 0 0 0 -0 -0 0 -0 -0 -0 -0 -0 -0 0 -0 -0 -0 -0
0 0 0 0 0 0 0 -0 -0 0 0 -0 0 -0 0 -0 0 0 0 -0 -0 -0 -0 -0 -0 -0 -0 0 -0 -0 -0 -0 -0 -0 -0 -0 0 0 -0 -0 -0 -0 -0 -0 0 -0 0 0 0
0 0 0 0 0 0 0 -0 0 0 -0 -0 -0 -0 -0 0 -0 0 0 -0 -0 0 0 -0 -0 -0 -0 0 0 0 -0 0 -0 -0 -0 -0 0 -0 0 0 0 0 0 0 0 0 0 0 0
0 0 0 0 0 0 0 0 0 0 -0 -0 -0 -0 -0 -0 0 0 -0 -0 -0 0 0 0 -0 -0 -0 0 0 0 -0 -0 0 -0 -0 -0 0 -0 -0 -0 -0 0 0 0 0 0 0 0 0
0 0 0 0 0 0 0 0 0 -0 -0 -0 0 0 -0 -0 -0 0 0 0 0 -0 0 0 0 0 0 -0 0 0 -0 0 0 0 -0 0 0 -0 -0 -0 -0 -0 -0 -0 0 -0 0 0 0
0 0 0 0 0 0 0 0 0 0 -0 -0 -0 0 -0 -0 -0 0 0 0 0 0 0 -0 -0 -0 -0 -0 0 0 0 0 0 0 0 0 0 0 0 0 0 0 0 0 0 0 0 0 0
0 0 0 0 0 0 0 0 0 0 0 0 -0 0 -0 -0 0 0 0 -0 -0 -0 -0 0 0 0 -0 -0 -0 -0 -0 -0 -0 -0 -0 0 0 -0 0 0 0 0 0 0 0 0 0 0 0
0 0 0 0 0 0 0 0 0 0 0 0 -0 -0 -0 0 -0 -0 -0 -0 -0 -0 -0 0 0 0 0 0 0 0 0 0 0 0 -0 0 0 0 0 0 0 0 0 0 0 0 0 0 0
0 0 0 0 0 0 0 0 0 0 0 0 -0 -0 0 0 -0 -0 -0 -0 -0 -0 -0 0 -0 -0 0 0 0 0 0 0 0 0 0 0 0 0 0 0 0 0 0 0 0 0 0 0 0
0 0 0 0 0 0 0 0 0 0 0 0 -0 -0 0 0 -0 -0 -0 -0 -0 -0 -0 0 0 -0 -0 0 0 0 0 0 0 0 0 0 0 0 0 0 0 0 0 0 0 0 0 0 0
0 0 0 0 0 0 0 0 0 0 0 0 0 0 0 0 -0 -0 -0 -0 -0 -0 -0 -0 0 0 0 0 0 0 0 0 0 0 0 0 0 0 0 0 0 0 0 0 0 0 0 0 0
0 0 0 0 0 0 0 0 0 0 0 0 0 0 0 0 -0 -0 -0 -0 -0 -0 -0 0 0 0 0 0 0 0 0 0 0 0 0 0 0 0 0 0 0 0 0 0 0 0 0 0 0
0 0 0 0 0 0 0 0 0 0 0 0 0 0 0 0 0 0 0 -0 0 0 0 0 0 0 0 0 0 0 0 0 0 0 0 0 0 0 0 0 0 0 0 0 0 0 0 0 0
0 0 0 0 0 0 0 0 0 0 0 0 0 0 0 0 0 0 0 0 0 0 0 0 0 0 0 0 0 0 0 0 0 0 0 0 0 0 0 0 0 0 0 0 0 0 0 0 0
0 0 0 0 0 0 0 0 0 0 0 0 0 0 0 0 0 0 0 0 0 0 0 0 0 0 0 0 0 0 0 0 0 0 0 0 0 0 0 0 0 0 0 0 0 0 0 0 0
0 0 0 0 0 0 0 0 0 0 0 0 0 0 0 0 0 0 0 0 0 0 0 0 0 0 0 0 0 0 0 0 0 0 0 0 0 0 0 0 0 0 0 0 0 0 0 0 0
0 0 0 0 0 0 0 0 0 0 0 0 0 0 0 0 0 0 0 0 0 0 0 0 0 0 0 0 0 0 0 0 0 0 0 0 0 0 0 0 0 0 0 0 0 0 0 0 0
0 0 0 0 0 0 0 0 0 0 0 0 0 0 0 0 0 0 0 0 0 0 0 0 0 0 0 0 0 0 0 0 0 0 0 0 0 0 0 0 0 0 0 0 0 0 0 0 0
0 0 0 0 0 0 0 0 0 0 0 0 0 0 0 0 0 0 0 0 0 0 0 0 0 0 0 0 0 0 0 0 0 0 0 0 0 0 0 0 0 0 0 0 0 0 0 0 0
0 0 0 0 0 0 0 0 0 0 0 0 0 0 0 0 0 0 0 0 0 0 0 0 0 0 0 0 0 0 0 0 0 0 0 0 0 0 0 0 0 0 0 0 0 0 0 0 0
0 0 0 0 0 0 0 -0 0 0 0 0 0 0 0 0 0 0 0 0 0 0 0 0 0 0 0 0 0 0 0 0 0 0 0 0 0 0 0 0 0 0 0 0 0 0 0 0 0
0 0 0 0 0 0 0 0 -0 0 0 0 0 0 0 0 0 0 0 0 0 0 0 0 0 0 0 0 0 0 0 0 0 0 0 0 0 0 0 0 0 0 0 0 0 0 0 0 0
0 0 0 0 0 0 0 0 -0 -0 -0 0 0 0 0 0 0 0 0 0 0 0 0 0 0 0 0 0 0 0 0 0 0 0 0 0 0 0 0 0 0 0 0 0 0 0 0 0 0
0 0 0 0 0 0 0 0 0 0 0 0 0 0 0 0 0 0 0 0 0 0 0 0 0 0 0 0 0 0 0 0 0 0 0 0 0 0 0 0 0 0 0 0 0 0 0 0 0
0 0 0 0 0 0 0 0 -0 -0 -0 -0 0 0 0 0 0 0 0 0 0 0 0 0 0 0 0 0 0 0 0 0 0 0 0 0 0 0 0 0 0 0 0 0 0 0 0 0 0
0 0 0 0 0 0 0 0 0 0 0 0 0 0 0 0 0 0 0 0 0 0 0 0 0 0 0 0 0 0 0 0 0 0 0 0 0 0 0 0 0 0 0 0 0 0 0 0 0
0 0 0 0 0 0 0 0 0 0 0 0 0 0 0 0 0 0 0 -0 -0 0 0 0 0 0 0 0 0 0 0 0 0 0 0 0 0 0 0 0 0 0 0 0 0 0 0 0 0
0 0 0 0 0 0 0 0 -0 -0 0 0 0 -0 -0 -0 0 0 -0 -0 -0 -0 0 0 0 0 0 0 0 0 0 0 0 0 0 0 0 0 0 0 0 0 0 0 0 0 0 0 0
0 0 0 0 0 0 0 0 0 0 0 0 -0 -0 0 -0 -0 -0 -0 -0 -0 -0 0 0 0 0 0 0 0 0 0 0 0 0 0 0 0 0 0 0 0 0 0 0 0 0 0 0 0
Wind_Speed_500mb
8 3 14 11 7 8 2 5 4 7 4 5 12 9 8 6 4 4 35 26 29 30 29 22 14 10 15 19 21 20 15 13 8 9 9 9 10 11 11 10 10 10 15 9 5 6 10 9 10
4 8 14 6 8 5 4 3 11 8 22 31 21 14 6 3 6 20 32 27 29 28 25 20 13 11 14 18 20 16 14 9 7 3 4 7 7 7 8 8 7 8 10 11 2 3 6 6 10
3 14 5 7 6 7 8 8 9 16 25 10 10 10 7 5 12 38 23 29 32 30 22 22 15 12 14 17 19 18 15 10 5 3 1 6 9 8 7 6 5 7 7 6 5 2 2 8 9
9 10 10 7 7 5 9 10 13 23 5 8 19 13 9 13 27 18 28 28 30 28 22 21 14 12 13 14 18 19 17 13 9 6 3 6 7 6 7 7 7 6 6 6 6 5 1 4 9
11 6 7 7 2 3 2 17 35 10 12 14 12 11 10 18 18 20 25 27 25 27 23 21 14 10 10 12 15 18 17 14 9 7 5 3 3 3 4 4 4 3 3 5 5 7 7 7 8
5 5 7 7 4 2 6 24 19 10 15 15 17 17 10 20 19 25 26 23 21 21 20 19 15 9 5 6 10 13 17 15 11 8 8 3 2 2 1 2 2 3 1 2 4 5 10 10 10
9 7 9 10 10 5 10 27 18 15 15 11 21 11 15 25 29 32 28 24 19 20 14 13 11 8 4 3 2 4 5 8 8 7 10 13 8 7 7 5 4 4 5 5 4 6 7 7 10
3 9 9 5 11 9 15 19 17 19 6 20 12 10 11 37 39 35 31 28 22 19 17 16 15 11 9 8 7 6 5 4 6 7 9 8 8 10 9 8 8 8 8 8 8 8 9 9 11
1 8 7 13 14 10 23 8 19 11 19 10 9 15 25 41 43 40 37 32 27 22 19 16 15 14 12 11 11 10 9 8 7 9 11 11 11 12 12 13 13 14 14 14 14 13 12 12 12
8 6 14 12 7 10 27 16 30 12 14 7 11 17 36 40 42 42 40 37 32 27 22 18 15 12 10 9 9 8 9 8 8 8 10 12 14 15 17 17 19 20 19 19 18 16 15 15 15
4 5 5 3 6 16 25 19 20 24 5 17 29 31 41 40 39 37 35 32 27 24 24 20 17 15 13 10 9 7 6 6 7 8 10 12 14 17 19 21 22 24 24 24 24 22 21 20 20
5 6 3 5 8 15 20 25 15 27 10 16 21 31 41 42 41 38 34 30 29 27 23 22 21 20 17 17 15 13 12 11 11 13 16 18 19 19 19 23 24 28 27 29 29 29 28 27 25
3 1 9 12 15 18 24 7 8 27 10 9 25 34 38 37 35 34 31 29 27 25 23 22 23 21 21 23 21 20 16 16 15 19 21 23 23 23 24 25 28 29 30 31 31 33 33 33 32
6 4 5 5 10 10 10 4 7 7 23 12 24 35 38 37 35 35 35 31 32 28 26 24 25 22 24 26 26 24 22 19 20 21 21 24 26 27 28 28 30 33 34 33 33 35 36 37 38
5 1 6 1 3 5 9 3 12 7 18 18 26 36 38 38 38 38 33 33 31 28 27 28 29 29 30 31 31 30 27 26 27 30 32 34 36 37 38 38 38 37 37 37 37 37 38 39 39
9 8 2 6 7 2 8 12 17 19 17 22 22 32 41 42 43 39 38 40 38 37 36 34 35 38 36 37 37 36 34 35 34 39 42 44 47 49 51 52 50 44 42 41 45 43 43 44 42
10 3 4 10 10 5 6 11 5 18 24 28 27 31 39 42 46 44 44 48 46 46 47 47 46 47 45 42 43 42 41 41 43 48 50 50 54 55 58 60 58 52 49 45 42 49 48 48 46
8 7 7 9 7 5 2 15 12 3 21 30 32 39 41 43 53 48 51 53 56 58 59 59 56 55 53 51 50 48 47 45 47 49 51 52 54 58 62 64 61 54 53 47 42 46 44 44 44
8 5 6 5 7 3 10 13 26 12 20 32 40 42 43 49 54 56 57 56 65 69 70 63 62 61 59 58 58 55 49 47 47 52 55 59 60 63 59 57 56 54 55 50 44 47 49 47 44
6 7 6 9 4 2 9 17 20 13 20 40 45 51 55 57 63 65 64 61 59 57 58 63 67 65 64 62 60 57 52 50 49 54 56 59 61 57 54 51 50 50 50 48 46 46 48 47 47
8 11 8 8 8 3 11 15 12 16 18 38 48 55 63 70 73 71 66 60 64 65 57 55 58 59 60 61 59 56 53 51 52 52 56 58 55 54 50 45 43 44 46 47 45 48 48 48 46
10 13 12 7 5 7 3 13 10 10 11 11 45 55 58 54 54 54 51 50 56 58 60 58 53 54 55 57 57 54 51 52 51 51 52 53 50 47 42 37 36 40 43 42 46 49 50 47 45
9 14 14 6 5 4 2 7 11 4 9 21 34 39 35 31 31 30 33 37 40 40 46 52 56 59 59 56 53 50 49 49 48 49 49 45 44 40 34 32 34 38 41 46 46 48 49 52 48
13 12 10 8 6 4 14 14 7 9 12 10 6 14 28 38 30 27 22 28 34 36 46 49 51 51 52 52 48 46 46 43 45 44 44 43 40 33 28 28 32 36 39 41 43 50 54 52 48
8 12 4 2 1 10 4 7 6 12 17 12 16 35 24 27 30 30 26 22 26 22 27 35 37 38 42 44 42 41 39 40 40 40 37 34 35 30 30 33 35 37 39 43 40 40 43 39 39
12 9 8 13 8 6 3 12 10 15 26 30 29 23 19 25 25 26 23 20 23 17 16 22 25 30 36 39 40 39 39 39 39 36 34 34 36 35 35 35 37 38 39 37 41 46 48 48 52
10 11 6 10 7 6 8 13 17 13 18 19 17 16 16 14 22 28 32 33 30 22 15 17 22 27 33 36 38 40 41 40 38 35 36 38 40 42 42 42 43 45 47 49 51 54 58 59 55
10 13 4 3 6 8 8 10 12 7 9 8 6 6 13 17 22 28 34 41 42 34 26 26 26 29 32 36 41 41 41 41 39 39 41 43 44 47 48 50 51 50 51 53 53 53 50 46 45
5 5 6 8 9 8 3 10 13 16 12 9 5 3 9 14 16 20 35 46 49 42 36 30 31 35 38 42 42 41 42 43 45 46 47 47 49 50 51 51 52 51 50 48 46 43 42 41 41
5 13 12 7 5 6 4 22 10 13 15 16 9 14 7 7 6 34 52 56 52 49 44 42 40 44 48 48 51 51 51 52 54 56 55 55 54 55 53 53 54 51 48 46 44 43 42 43 44
Wind_Direction_500mb
340 342 152 138 71 66 127 168 134 129 143 172 129 151 158 82 150 158 146 158 161 168 163 160 144 135 145 152 155 154 152 149 129 138 149 158 171 187 189 181 182 189 197 148 117 23 14 8 16
352 135 153 117 91 95 236 203 163 172 133 116 103 104 78 99 119 145 148 154 157 163 164 163 152 143 147 158 163 161 158 167 149 148 209 207 181 180 187 189 191 186 162 188 177 337 2 15 22
170 166 159 92 106 163 169 196 158 136 143 142 119 95 108 109 142 149 146 153 154 163 167 155 149 137 146 159 169 168 172 189 202 307 184 159 157 150 157 162 157 147 152 162 177 190 162 25 29
170 143 74 85 142 205 164 173 141 142 144 145 132 88 104 122 138 158 161 156 155 162 162 158 154 140 139 158 173 176 189 215 250 264 195 121 129 138 144 141 152 123 112 170 185 154 113 48 22
169 136 74 81 155 153 137 157 153 151 147 149 155 148 128 147 152 152 159 154 157 164 168 167 165 152 141 155 174 187 203 217 230 238 210 96 64 68 118 133 163 182 181 136 190 236 267 314 339
139 103 82 153 195 90 102 159 155 147 154 154 128 126 141 159 158 157 156 152 155 172 175 177 180 175 158 157 171 183 193 214 230 210 229 254 351 297 355 65 32 7 308 227 225 250 270 285 304
110 85 150 139 149 128 167 166 162 157 151 188 148 113 146 154 149 152 155 153 147 161 179 192 196 200 191 191 183 181 213 229 237 227 216 247 262 288 274 278 290 330 349 335 309 281 292 288 294
71 93 113 187 172 188 162 163 172 145 167 144 167 166 176 161 153 155 157 157 159 165 175 187 200 209 215 215 217 210 207 233 244 242 257 264 294 290 287 292 294 297 301 307 310 303 293 288 288
343 73 158 182 162 170 161 134 153 140 152 183 195 154 147 160 160 163 168 170 171 172 175 180 192 199 209 220 226 227 225 230 240 247 251 268 280 282 285 285 282 285 288 288 286 284 287 293 297
67 106 190 173 184 171 168 158 156 144 155 205 189 164 156 165 168 170 172 167 164 160 159 159 165 174 189 197 209 214 226 234 243 257 267 272 276 279 281 283 284 285 286 289 289 288 291 294 295
60 126 172 68 163 164 154 147 164 144 210 205 189 173 168 171 177 181 181 178 168 166 174 172 176 184 189 196 212 219 232 247 261 275 282 285 287 283 283 283 284 283 282 281 279 279 281 285 287
88 62 107 95 125 154 158 145 161 177 163 202 202 190 179 180 183 185 185 187 192 194 193 196 202 209 211 214 214 220 230 246 263 271 273 278 281 285 289 287 285 280 278 277 276 275 275 277 280
59 55 65 91 108 128 146 135 168 208 185 197 196 198 195 194 193 194 197 201 206 210 210 212 218 221 224 229 230 232 238 253 263 268 273 278 280 282 280 282 280 281 277 276 275 274 273 274 275
357 40 69 85 103 118 131 142 170 219 213 220 200 203 205 208 208 206 209 209 217 220 226 229 238 238 240 242 239 243 249 262 271 275 278 278 282 285 284 283 282 279 276 275 273 271 271 272 272
13 93 355 359 149 114 126 315 218 170 194 212 210 210 213 219 223 224 225 229 234 240 242 240 248 249 256 257 253 250 258 265 275 281 279 280 281 283 282 281 279 278 274 272 272 272 273 273 273
56 48 121 283 156 108 139 246 251 199 199 215 216 220 222 224 232 236 236 239 241 245 248 248 250 250 255 261 254 253 261 267 278 283 280 279 279 279 278 278 278 277 271 270 267 271 274 276 281
18 220 271 309 225 92 136 239 297 216 216 227 228 229 234 236 238 239 241 249 253 255 255 255 252 253 255 259 256 258 263 270 276 280 279 278 278 279 278 276 275 270 263 262 266 271 269 272 274
179 188 238 237 6 45 71 259 250 113 215 234 244 246 247 248 250 252 254 257 260 261 260 258 258 253 252 257 255 257 263 271 280 283 281 279 279 280 278 276 273 265 258 259 256 267 274 274 275
137 134 211 300 341 359 226 251 269 252 247 258 256 259 260 259 261 262 259 260 262 261 260 260 259 258 252 251 254 257 262 269 283 280 279 281 284 284 281 276 270 263 255 255 257 258 263 269 276
128 143 221 288 10 136 299 265 269 246 241 251 260 265 264 266 266 264 262 264 263 262 258 260 262 257 253 250 250 254 258 269 282 278 279 281 285 284 279 274 266 260 255 256 261 261 262 262 265
165 172 179 224 325 92 328 269 233 263 242 262 262 262 264 262 265 269 270 269 263 260 264 272 266 260 254 249 248 251 261 272 278 280 283 283 283 283 278 270 259 253 248 254 257 258 260 267 269
178 180 164 177 73 240 27 287 298 291 286 278 272 261 262 272 279 282 284 281 270 268 265 264 263 261 254 247 246 252 262 274 282 285 285 286 284 282 276 268 258 252 252 248 251 255 256 258 262
201 150 163 134 169 339 294 285 272 315 278 250 261 283 305 317 312 308 298 291 278 269 260 262 261 256 248 245 248 254 265 275 280 281 284 282 282 278 271 263 259 256 253 253 256 257 257 263 261
140 93 62 66 115 278 203 191 223 190 220 294 284 347 333 327 323 319 315 317 292 266 255 247 256 259 251 249 250 257 267 276 281 283 285 287 285 277 268 259 256 258 260 261 259 263 261 257 260
176 142 103 66 194 228 305 221 275 270 252 236 299 319 335 352 348 340 318 314 329 287 262 249 253 251 249 250 257 268 272 276 277 281 287 292 295 279 264 262 262 264 268 264 257 264 261 260 257
191 180 180 194 201 271 47 240 251 221 273 285 289 310 330 358 7 20 21 2 349 325 279 260 258 256 257 262 266 268 273 274 278 281 285 285 284 277 273 267 262 265 272 262 264 264 267 268 269
187 209 156 90 23 58 221 278 285 269 283 308 322 334 9 24 23 35 37 28 13 353 320 285 267 261 262 266 273 278 277 275 274 278 281 282 282 283 279 274 267 263 263 264 263 263 263 262 260
174 161 125 27 167 232 251 264 231 238 226 332 12 4 34 33 42 49 39 23 10 350 328 307 291 282 280 285 289 284 279 276 273 274 275 275 276 276 276 274 273 269 266 264 263 261 259 254 250
144 185 197 143 158 191 281 247 211 214 211 202 235 71 52 56 62 36 357 353 351 344 328 317 305 302 300 296 292 288 285 278 273 273 275 275 274 273 272 272 269 267 265 264 261 256 253 250 249
249 194 181 147 252 230 177 258 183 197 188 209 219 327 294 38 341 324 327 332 334 333 328 319 311 307 304 297 292 290 287 285 281 277 275 273 272 272 272 269 266 263 261 258 255 252 251 251 250
Wind_Speed_850mb
8 3 14 11 7 8 2 5 4 7 4 5 12 9 8 6 4 4 35 26 29 30 29 22 14 10 15 19 21 20 15 13 8 9 9 9 10 11 11 10 10 10 15 9 5 6 10 9 10
4 8 14 6 8 5 4 3 11 8 22 31 21 14 6 3 6 20 32 27 29 28 25 20 13 11 14 18 20 16 14 9 7 3 4 7 7 7 8 8 7 8 10 11 2 3 6 6 10
3 14 5 7 6 7 8 8 9 16 25 10 10 10 7 5 12 38 23 29 32 30 22 22 15 12 14 17 19 18 15 10 5 3 1 6 9 8 7 6 5 7 7 6 5 2 2 8 9
9 10 10 7 7 5 9 10 13 23 5 8 19 13 9 13 27 18 28 28 30 28 22 21 14 12 13 14 18 19 17 13 9 6 3 6 7 6 7 7 7 6 6 6 6 5 1 4 9
11 6 7 7 2 3 2 17 35 10 12 14 12 11 10 18 18 20 25 27 25 27 23 21 14 10 10 12 15 18 17 14 9 7 5 3 3 3 4 4 4 3 3 5 5 7 7 7 8
5 5 7 7 4 2 6 24 19 10 15 15 17 17 10 20 19 25 26 23 21 21 20 19 15 9 5 6 10 13 17 15 11 8 8 3 2 2 1 2 2 3 1 2 4 5 10 10 10
9 7 9 10 10 5 10 27 18 15 15 11 21 11 15 25 29 32 28 24 19 20 14 13 11 8 4 3 2 4 5 8 8 7 10 13 8 7 7 5 4 4 5 5 4 6 7 7 10
3 9 9 5 11 9 15 19 17 19 6 20 12 10 11 37 39 35 31 28 22 19 17 16 15 11 9 8 7 6 5 4 6 7 9 8 8 10 9 8 8 8 8 8 8 8 9 9 11
1 8 7 13 14 10 23 8 19 11 19 10 9 15 25 41 43 40 37 32 27 22 19 16 15 14 12 11 11 10 9 8 7 9 11 11 11 12 12 13 13 14 14 14 14 13 12 12 12
8 6 14 12 7 10 27 16 30 12 14 7 11 17 36 40 42 42 40 37 32 27 22 18 15 12 10 9 9 8 9 8 8 8 10 12 14 15 17 17 19 20 19 19 18 16 15 15 15
4 5 5 3 6 16 25 19 20 24 5 17 29 31 41 40 39 37 35 32 27 24 24 20 17 15 13 10 9 7 6 6 7 8 10 12 14 17 19 21 22 24 24 24 24 22 21 20 20
5 6 3 5 8 15 20 25 15 27 10 16 21 31 41 42 41 38 34 30 29 27 23 22 21 20 17 17 15 13 12 11 11 13 16 18 19 19 19 23 24 28 27 29 29 29 28 27 25
3 1 9 12 15 18 24 7 8 27 10 9 25 34 38 37 35 34 31 29 27 25 23 22 23 21 21 23 21 20 16 16 15 19 21 23 23 23 24 25 28 29 30 31 31 33 33 33 32
6 4 5 5 10 10 10 4 7 7 23 12 24 35 38 37 35 35 35 31 32 28 26 24 25 22 24 26 26 24 22 19 20 21 21 24 26 27 28 28 30 33 34 33 33 35 36 37 38
5 1 6 1 3 5 9 3 12 7 18 18 26 36 38 38 38 38 33 33 31 28 27 28 29 29 30 31 31 30 27 26 27 30 32 34 36 37 38 38 38 37 37 37 37 37 38 39 39
9 8 2 6 7 2 8 12 17 19 17 22 22 32 41 42 43 39 38 40 38 37 36 34 35 38 36 37 37 36 34 35 34 39 42 44 47 49 51 52 50 44 42 41 45 43 43 44 42
10 3 4 10 10 5 6 11 5 18 24 28 27 31 39 42 46 44 44 48 46 46 47 47 46 47 45 42 43 42 41 41 43 48 50 50 54 55 58 60 58 52 49 45 42 49 48 48 46
8 7 7 9 7 5 2 15 12 3 21 30 32 39 41 43 53 48 51 53 56 58 59 59 56 55 53 51 50 48 47 45 47 49 51 52 54 58 62 64 61 54 53 47 42 46 44 44 44
8 5 6 5 7 3 10 13 26 12 20 32 40 42 43 49 54 56 57 56 65 69 70 63 62 61 59 58 58 55 49 47 47 52 55 59 60 63 59 57 56 54 55 50 44 47 49 47 44
6 7 6 9 4 2 9 17 20 13 20 40 45 51 55 57 63 65 64 61 59 57 58 63 67 65 64 62 60 57 52 50 49 54 56 59 61 57 54 51 50 50 50 48 46 46 48 47 47
8 11 8 8 8 3 11 15 12 16 18 38 48 55 63 70 73 71 66 60 64 65 57 55 58 59 60 61 59 56 53 51 52 52 56 58 55 54 50 45 43 44 46 47 45 48 48 48 46
10 13 12 7 5 7 3 13 10 10 11 11 45 55 58 54 54 54 51 50 56 58 60 58 53 54 55 57 57 54 51 52 51 51 52 53 50 47 42 37 36 40 43 42 46 49 50 47 45
9 14 14 6 5 4 2 7 11 4 9 21 34 39 35 31 31 30 33 37 40 40 46 52 56 59 59 56 53 50 49 49 48 49 49 45 44 40 34 32 34 38 41 46 46 48 49 52 48
13 12 10 8 6 4 14 14 7 9 12 10 6 14 28 38 30 27 22 28 34 36 46 49 51 51 52 52 48 46 46 43 45 44 44 43 40 33 28 28 32 36 39 41 43 50 54 52 48
8 12 4 2 1 10 4 7 6 12 17 12 16 35 24 27 30 30 26 22 26 22 27 35 37 38 42 44 42 41 39 40 40 40 37 34 35 30 30 33 35 37 39 43 40 40 43 39 39
12 9 8 13 8 6 3 12 10 15 26 30 29 23 19 25 25 26 23 20 23 17 16 22 25 30 36 39 40 39 39 39 39 36 34 34 36 35 35 35 37 38 39 37 41 46 48 48 52
10 11 6 10 7 6 8 13 17 13 18 19 17 16 16 14 22 28 32 33 30 22 15 17 22 27 33 36 38 40 41 40 38 35 36 38 40 42 42 42 43 45 47 49 51 54 58 59 55
10 13 4 3 6 8 8 10 12 7 9 8 6 6 13 17 22 28 34 41 42 34 26 26 26 29 32 36 41 41 41 41 39 39 41 43 44 47 48 50 51 50 51 53 53 53 50 46 45
5 5 6 8 9 8 3 10 13 16 12 9 5 3 9 14 16 20 35 46 49 42 36 30 31 35 38 42 42 41 42 43 45 46 47 47 49 50 51 51 52 51 50 48 46 43 42 41 41
5 13 12 7 5 6 4 22 10 13 15 16 9 14 7 7 6 34 52 56 52 49 44 42 40 44 48 48 51 51 51 52 54 56 55 55 54 55 53 53 54 51 48 46 44 43 42 43 44
Wind_Direction_850mb
340 342 152 138 71 66 127 168 134 129 143 172 129 151 158 82 150 158 146 158 161 168 163 160 144 135 145 152 155 154 152 149 129 138 149 158 171 187 189 181 182 189 197 148 117 23 14 8 16
352 135 153 117 91 95 236 203 163 172 133 116 103 104 78 99 119 145 148 154 157 163 164 163 152 143 147 158 163 161 158 167 149 148 209 207 181 180 187 189 191 186 162 188 177 337 2 15 22
170 166 159 92 106 163 169 196 158 136 143 142 119 95 108 109 142 149 146 153 154 163 167 155 149 137 146 159 169 168 172 189 202 307 184 159 157 150 157 162 157 147 152 162 177 190 162 25 29
170 143 74 85 142 205 164 173 141 142 144 145 132 88 104 122 138 158 161 156 155 162 162 158 154 140 139 158 173 176 189 215 250 264 195 121 129 138 144 141 152 123 112 170 185 154 113 48 22
169 136 74 81 155 153 137 157 153 151 147 149 155 148 128 147 152 152 159 154 157 164 168 167 165 152 141 155 174 187 203 217 230 238 210 96 64 68 118 133 163 182 181 136 190 236 267 314 339
139 103 82 153 195 90 102 159 155 147 154 154 128 126 141 159 158 157 156 152 155 172 175 177 180 175 158 157 171 183 193 214 230 210 229 254 351 297 355 65 32 7 308 227 225 250 270 285 304
110 85 150 139 149 128 167 166 162 157 151 188 148 113 146 154 149 152 155 153 147 161 179 192 196 200 191 191 183 181 213 229 237 227 216 247 262 288 274 278 290 330 349 335 309 281 292 288 294
71 93 113 187 172 188 162 163 172 145 167 144 167 166 176 161 153 155 157 157 159 165 175 187 200 209 215 215 217 210 207 233 244 242 257 264 294 290 287 292 294 297 301 307 310 303 293 288 288
343 73 158 182 162 170 161 134 153 140 152 183 195 154 147 160 160 163 168 170 171 172 175 180 192 199 209 220 226 227 225 230 240 247 251 268 280 282 285 285 282 285 288 288 286 284 287 293 297
67 106 190 173 184 171 168 158 156 144 155 205 189 164 156 165 168 170 172 167 164 160 159 159 165 174 189 197 209 214 226 234 243 257 267 272 276 279 281 283 284 285 286 289 289 288 291 294 295
60 126 172 68 163 164 154 147 164 144 210 205 189 173 168 171 177 181 181 178 168 166 174 172 176 184 189 196 212 219 232 247 261 275 282 285 287 283 283 283 284 283 282 281 279 279 281 285 287
88 62 107 95 125 154 158 145 161 177 163 202 202 190 179 180 183 185 185 187 192 194 193 196 202 209 211 214 214 220 230 246 263 271 273 278 281 285 289 287 285 280 278 277 276 275 275 277 280
59 55 65 91 108 128 146 135 168 208 185 197 196 198 195 194 193 194 197 201 206 210 210 212 218 221 224 229 230 232 238 253 263 268 273 278 280 282 280 282 280 281 277 276 275 274 273 274 275
357 40 69 85 103 118 131 142 170 219 213 220 200 203 205 208 208 206 209 209 217 220 226 229 238 238 240 242 239 243 249 262 271 275 278 278 282 285 284 283 282 279 276 275 273 271 271 272 272
13 93 355 359 149 114 126 315 218 170 194 212 210 210 213 219 223 224 225 229 234 240 242 240 248 249 256 257 253 250 258 265 275 281 279 280 281 283 282 281 279 278 274 272 272 272 273 273 273
56 48 121 283 156 108 139 246 251 199 199 215 216 220 222 224 232 236 236 239 241 245 248 248 250 250 255 261 254 253 261 267 278 283 280 279 279 279 278 278 278 277 271 270 267 271 274 276 281
18 220 271 309 225 92 136 239 297 216 216 227 228 229 234 236 238 239 241 249 253 255 255 255 252 253 255 259 256 258 263 270 276 280 279 278 278 279 278 276 275 270 263 262 266 271 269 272 274
179 188 238 237 6 45 71 259 250 113 215 234 244 246 247 248 250 252 254 257 260 261 260 258 258 253 252 257 255 257 263 271 280 283 281 279 279 280 278 276 273 265 258 259 256 267 274 274 275
137 134 211 300 341 359 226 251 269 252 247 258 256 259 260 259 261 262 259 260 262 261 260 260 259 258 252 251 254 257 262 269 283 280 279 281 284 284 281 276 270 263 255 255 257 258 263 269 276
128 143 221 288 10 136 299 265 269 246 241 251 260 265 264 266 266 264 262 264 263 262 258 260 262 257 253 250 250 254 258 269 282 278 279 281 285 284 279 274 266 260 255 256 261 261 262 262 265
165 172 179 224 325 92 328 269 233 263 242 262 262 262 264 262 265 269 270 269 263 260 264 272 266 260 254 249 248 251 261 272 278 280 283 283 283 283 278 270 259 253 248 254 257 258 260 267 269
178 180 164 177 73 240 27 287 298 291 286 278 272 261 262 272 279 282 284 281 270 268 265 264 263 261 254 247 246 252 262 274 282 285 285 286 284 282 276 268 258 252 252 248 251 255 256 258 262
201 150 163 134 169 339 294 285 272 315 278 250 261 283 305 317 312 308 298 291 278 269 260 262 261 256 248 245 248 254 265 275 280 281 284 282 282 278 271 263 259 256 253 253 256 257 257 263 261
140 93 62 66 115 278 203 191 223 190 220 294 284 347 333 327 323 319 315 317 292 266 255 247 256 259 251 249 250 257 267 276 281 283 285 287 285 277 268 259 256 258 260 261 259 263 261 257 260
176 142 103 66 194 228 305 221 275 270 252 236 299 319 335 352 348 340 318 314 329 287 262 249 253 251 249 250 257 268 272 276 277 281 287 292 295 279 264 262 262 264 268 264 257 264 261 260 257
191 180 180 194 201 271 47 240 251 221 273 285 289 310 330 358 7 20 21 2 349 325 279 260 258 256 257 262 266 268 273 274 278 281 285 285 284 277 273 267 262 265 272 262 264 264 267 268 269
187 209 156 90 23 58 221 278 285 269 283 308 322 334 9 24 23 35 37 28 13 353 320 285 267 261 262 266 273 278 277 275 274 278 281 282 282 283 279 274 267 263 263 264 263 263 263 262 260
174 161 125 27 167 232 251 264 231 238 226 332 12 4 34 33 42 49 39 23 10 350 328 307 291 282 280 285 289 284 279 276 273 274 275 275 276 276 276 274 273 269 266 264 263 261 259 254 250
144 185 197 143 158 191 281 247 211 214 211 202 235 71 52 56 62 36 357 353 351 344 328 317 305 302 300 296 292 288 285 278 273 273 275 275 274 273 272 272 269 267 265 264 261 256 253 250 249
249 194 181 147 252 230 177 258 183 197 188 209 219 327 294 38 341 324 327 332 334 333 328 319 311 307 304 297 292 290 287 285 281 277 275 273 272 272 272 269 266 263 261 258 255 252 251 251 250